Content
SEND FEEDBACK

Daily
Averages
Monthly
Summary
United States of America

CAMP QUEZON, GUAM


Home > North America > United States > Guam
Elevation: 269 feet     Latitude: 13 28N     Longitude: 144 48E

WEATHER
 
SELECT A DAY
Number of Records: 209,379;   Date Range: 1/1/95 - 9/21/14
 
SHARE

PRINT THIS DATA

[ ← Previous Day ]
WEATHER ALMANAC - FEBRUARY 8, 2013
[ Next Day → ]
[ °C ]   °F
Weather ElementAverageHighLow
Temperature80.2 °F84.2 °F (12:20 pm)77 °F (4:54 am)
Dewpoint72.2 °F73.9 °F (2:54 am)70 °F (7:54 pm)
Humidity76.5 %88 % (4:54 am)65 % (1:54 pm)
Barometer29.89 in29.95 in (10:15 am)29.84 in (3:54 am)
Wind Speed10.8 mph16.1 mph (10:54 am)
Wind Gust21.9 mph (10:15 am)
Weather ElementAverage
Visibility10 mi
Wind DirectionE (91.6 °)

Weather ElementTotal
Precipitation---
Cooling Degree Days15.6 (Base 65)
Growing Degree Days30.6 (Base 50)
Averaged from 32 records on February 8, 2013
WEATHER CONDITIONS BREAKOUT
WIND DIRECTION BREAKOUT
WEATHER BY HOUR - FEBRUARY 8, 2013
[ °C ]   °F
Local TimeTemperatureDewpointHumidityBarometerVisibilityWind DirectionWind SpeedGust SpeedPrecipitationEventsConditions
1:54 AM78.1 °F73.0 °F84 %29.85 in10.0 miEast (90°)9.2 mphClear
2:38 AM78.8 °F73.4 °F83 %29.87 in10.0 miEast (90°)10.4 mphMostly Cloudy
2:50 AM78.8 °F73.4 °F83 %29.87 in10.0 miEast (90°)9.2 mphScattered Clouds
2:54 AM78.1 °F73.9 °F87 %29.85 in10.0 miEast (100°)10.4 mphMostly Cloudy
3:54 AM78.1 °F73.0 °F84 %29.84 in10.0 miEast (100°)11.5 mphScattered Clouds
4:16 AM78.8 °F73.4 °F83 %29.87 in10.0 miEast (90°)6.9 mphMostly Cloudy
4:28 AM78.8 °F73.4 °F83 %29.87 in10.0 miEast (90°)9.2 mphScattered Clouds
4:54 AM77.0 °F73.0 °F88 %29.85 in10.0 miEast (100°)9.2 mphPartly Cloudy
5:54 AM78.1 °F73.0 °F84 %29.86 in10.0 miEast (100°)10.4 mphPartly Cloudy
6:54 AM78.1 °F72.0 °F81 %29.89 in10.0 miEast (90°)8.1 mphPartly Cloudy
7:54 AM79.0 °F72.0 °F79 %29.91 in10.0 miEast (100°)10.4 mphPartly Cloudy
8:54 AM80.1 °F72.0 °F76 %29.92 in10.0 miEast (90°)12.7 mph18.4 mphScattered Clouds
9:54 AM82.0 °F73.0 °F74 %29.93 in10.0 miESE (110°)12.7 mphScattered Clouds
10:15 AM82.4 °F71.6 °F70 %29.95 in10.0 miEast (100°)11.5 mph21.9 mphMostly Cloudy
10:31 AM82.4 °F71.6 °F70 %29.95 in10.0 miEast (90°)15.0 mphScattered Clouds
10:54 AM82.0 °F72.0 °F71 %29.93 in10.0 miEast (80°)16.1 mphMostly Cloudy
11:54 AM82.9 °F72.0 °F69 %29.91 in10.0 miEast (80°)13.8 mph19.6 mphMostly Cloudy
12:20 PM84.2 °F71.6 °F66 %29.91 in10.0 miEast (100°)15.0 mphScattered Clouds
12:54 PM82.9 °F72.0 °F69 %29.88 in10.0 miESE (110°)13.8 mph20.7 mphScattered Clouds
1:54 PM84.0 °F71.1 °F65 %29.86 in10.0 miEast (100°)11.5 mph19.6 mphScattered Clouds
2:54 PM84.0 °F72.0 °F67 %29.84 in10.0 miEast (80°)13.8 mph20.7 mphScattered Clouds
3:49 PM82.4 °F71.6 °F70 %29.87 in10.0 miEast (90°)13.8 mphMostly Cloudy
3:54 PM82.0 °F72.0 °F71 %29.84 in10.0 miEast (100°)12.7 mphMostly Cloudy
4:06 PM82.4 °F71.6 °F70 %29.86 in10.0 miEast (90°)12.7 mphMostly Cloudy
4:54 PM81.0 °F72.0 °F74 %29.86 in10.0 miEast (90°)11.5 mphScattered Clouds
5:54 PM80.1 °F71.1 °F74 %29.87 in10.0 miEast (80°)9.2 mphPartly Cloudy
6:54 PM79.0 °F71.1 °F77 %29.89 in10.0 miEast (80°)10.4 mphPartly Cloudy
7:54 PM78.1 °F70.0 °F76 %29.91 in10.0 miEast (90°)6.9 mphPartly Cloudy
8:54 PM78.1 °F71.1 °F79 %29.92 in10.0 miEast (80°)6.9 mphPartly Cloudy
9:54 PM79.0 °F72.0 °F79 %29.93 in10.0 miEast (80°)6.9 mphPartly Cloudy
10:54 PM78.1 °F72.0 °F81 %29.92 in10.0 miEast (80°)6.9 mphPartly Cloudy
11:54 PM78.1 °F72.0 °F81 %29.91 in10.0 miEast (90°)6.9 mphPartly Cloudy
Hourly data recorded from PGUM, located miles away from Camp Quezon, Guam







STORIES FROM OUR PARTNERS